Regional Weather Roundup
Issued by NWS

Home | Current Version | Previous Version | Text Only | Print | Product List | Glossary On
Versions: 1 2 3 4 5 6 7 8 9 10 11 12 13 14 15 16 17 18 19 20 21 22 23 24 25 26 27 28 29 30 31 32 33 34 35 36 37 38 39 40 41 42 43 44 45 46 47 48 49 50
000
ASUS43 KTOP 280908
RWRKS

WEATHER ROUNDUP FOR KANSAS
NATIONAL WEATHER SERVICE GOODLAND KS
400 AM CDT FRI JUL 28 2017

NOTE:  "FAIR" INDICATES FEW OR NO CLOUDS BELOW 12,000 FEET WITH NO
SIGNIFICANT WEATHER AND/OR OBSTRUCTIONS TO VISIBILITY.

KSZ001>006-013>018-027>032-041>047-281000-
NORTHWEST KANSAS

CITY           SKY/WX    TMP DP  RH WIND       PRES   REMARKS
GOODLAND       CLEAR     64  63  96 SE5       30.11S
HAYS           MOCLDY    66  62  87 NE3       30.04S
HILL CITY      CLOUDY    64  62  93 CALM      30.06S
RUSSELL        PTCLDY    67  63  87 NE7       30.02R
$$

KSZ061>065-074>080-084>089-281000-
SOUTHWEST KANSAS

CITY           SKY/WX    TMP DP  RH WIND       PRES   REMARKS
DODGE CITY     CLOUDY    69  66  90 E6        30.05R
ELKHART          N/A     66  57  72 SE3         N/A
GARDEN CITY    PTCLDY    68  65  90 E7        30.06R
GREAT BEND     PTCLDY    71  65  81 E8        30.02F
LIBERAL        CLOUDY    72  68  87 E7        30.06R
PRATT          CLOUDY    68  64  86 NE5       30.02R
$$

KSZ066>073-081>083-090>101-281000-
SOUTHEAST KANSAS

CITY           SKY/WX    TMP DP  RH WIND       PRES   REMARKS
CHANUTE        CLEAR     77  74  90 N6        29.91F
COFFEYVILLE    MOCLDY    76  75  97 N5        29.89F
HUTCHINSON     CLOUDY    71  67  87 NE5       29.99R
MEDICINE LODGE   N/A     71  67  87 NW3       29.98R
NEWTON         CLOUDY    71  67  87 NE8       29.99S
PARSONS        CLEAR     76  74  93 N3        29.90F
WICHITA INTL   CLOUDY    76  71  85 NE10      29.96R
WICHITA JABRA  MOCLDY    73  70  90 N7        29.96S
WICHITA MCCONL CLOUDY    75  69  81 NE10      29.96S
WINFIELD       PTCLDY    76  72  87 N8        29.94S
$$

KSZ007>012-019>026-033>040-048>060-102>105-281000-
NORTHEAST KANSAS

CITY           SKY/WX    TMP DP  RH WIND       PRES   REMARKS
CONCORDIA      PTCLDY    66  65  96 CALM      30.02R
EMPORIA        CLEAR     71  67  87 N6        29.95F
LAWRENCE       MOCLDY    73  70  90 N3        29.95R
MANHATTAN      CLOUDY    70  65  84 CALM      29.97S
MARYSVILLE     CLOUDY    64  64 100 N3        30.00S
OLATHE IND     CLEAR     71  70  96 N3        29.95F
OLATHE EXE     CLEAR     73  72  96 N3        29.95S
SALINA         CLOUDY    71  66  84 NW5       29.99F
TOPEKA BILLARD PTCLDY    70  69  97 N5        29.95S
TOPEKA FORBES  CLEAR     70  68  93 N5        29.96S
$$



USA.gov is the U.S. government's official web portal to all federal, state and local government web resources and services.